sat.trackr.live / text

‹ back to catalog

MOLA

NORAD 59289 · 2024-053B

PAYLOAD ACTIVE UNKNOWN

§ Identity

Operator
Country
US
Launch date
2024-03-21
Launch site
WLPIS
Launch vehicle
Mass (kg)
RCS (m²)

External: N2YO · Heavens-Above · Gunter

§ Orbital elements

Epoch: 2026-09-21T23:05:45.578112Z

Period
91.81 min
Inclination
49.9824°
Eccentricity
0.0001745
Mean motion
15.68446853 rev/d
Perigee alt
362.2 km
Apogee alt
364.5 km
Semi-major
6,741.5 km
B*
4.6249e-4
RAAN
147.1959°
Arg perigee
148.3081°
Mean anomaly
211.7998°
Rev number
13,664

§ Raw data

MOLA1 59289U 24053B   26264.96233308  .00053130  00000+0  46249-3 0  99902 59289  49.9824 147.1959 0001745 148.3081 211.7998 15.68446853136646

JSON: /api/v1/satellites/59289 · /tle

For live sub-satellite position, see the globe view (requires WebGL).

§ Visibility from observer

Set your observer location to see the next 7 days of passes ≥ 10°. The values pass through the URL so the page stays shareable.

No JS? Fill the form by hand. The geolocation button needs JavaScript.